Flag for United Arab Emirates Weather past 2 weeks in Ras al-Khaimah, Ras al-Khaimah, United Arab Emirates

Now
99 °F

Passing clouds.


Feels Like: 96 °F
Forecast: 71 / 98 °F
Wind: 9 mph from Northwest

Location: Ras Al Khaimah International Airport

Current Time: Oct 20, 2014 at 2:40:51 PM

Latest Report: Oct 20, 2014 at 2:00 PM


Visibility: N/A

Pressure: 29.83 "Hg

Humidity: 22%

Dew point: 54 °F

Location of Ras al-KhaimahLocation

Historic Weather in Ras al-Khaimah — Graph

°F

Ras al-Khaimah temperature yesterday

Maximum temperature yesterday: 97 °F (at 1:00 PM)
Minimum temperature yesterday: 77 °F (at 5:00 AM)
Average temperature yesterday: 86 °F

Past Weeks' High & Low Weather Summary

 TemperatureHumidityPressure
High104 °F (Oct 10, 12:00 PM)100% (Oct 18, 7:00 AM)29.98 "Hg (Oct 18, 7:00 AM)
Low68 °F (Oct 17, 6:00 AM)16% (Oct 14, 9:00 AM)29.62 "Hg (Oct 14, 1:00 AM)
Average88 °F54%29.85 "Hg
* Reported Oct 5 1:00 PM — Oct 20 1:00 PM, Ras al-Khaimah, Weather by CustomWeather, © 2014

Note: Actual official high and low records may vary slightly from our data, if they occured in-between our weather recording intervals... More about our weather records

Advertising

Ras al-Khaimah weather history for previous 24 hours

 ConditionsComfort  
Time TempWeatherWind HumidityBarometerVisibility
1:00 PM
Oct 20
95 °FPassing clouds.7 mph36%29.86 "HgN/A
12:00 PM93 °FSunny.3 mph41%29.89 "Hg10 mi
11:00 AM93 °FSunny.7 mph47%29.92 "Hg10 mi
10:00 AM91 °FSunny.3 mph49%29.92 "Hg10 mi
9:00 AM88 °FSunny.8 mph55%29.92 "Hg10 mi
7:00 AM73 °FSunny.2 mph74%N/A10 mi
6:00 AM72 °FClear.No wind73%29.86 "Hg10 mi
5:00 AM73 °FClear.2 mph69%29.86 "Hg10 mi
4:00 AM73 °FClear.5 mph69%29.86 "Hg10 mi
3:00 AM73 °FClear.3 mph69%29.86 "Hg10 mi
2:00 AM75 °FClear.2 mph61%29.86 "Hg10 mi
1:00 AM75 °FClear.3 mph65%29.86 "Hg10 mi
12:00 AM81 °FPassing clouds.3 mph58%29.86 "HgN/A
11:00 PM
Oct 19
79 °FClear.3 mph61%29.89 "Hg10 mi
10:00 PM81 °FClear.No wind58%29.89 "Hg10 mi
9:00 PM84 °FClear.5 mph51%29.86 "Hg10 mi
8:00 PM84 °FClear.3 mph51%29.86 "Hg10 mi
7:00 PM86 °FClear.3 mph49%29.83 "Hg10 mi
6:00 PM90 °FClear.7 mph43%29.83 "Hg10 mi
5:00 PM91 °FSunny.10 mph44%29.80 "Hg10 mi
4:00 PM93 °FSunny.13 mph44%29.80 "Hg10 mi
3:00 PM95 °FSunny.15 mph50%29.80 "Hg10 mi
2:00 PM95 °FPassing clouds.15 mph47%29.80 "HgN/A
Weather by CustomWeather, © 2014

See weather overviewHow to use our weather pages